Wind_Speed
25 22 22 26 21 17 15 13 13 13 14 13 12 11 6 11 14 19 21 22 27 29 30 28 27 27 30 34 38 49 49 35 37 43 38 39 35 37 40 37 33 33 34
25 21 21 25 23 19 18 16 17 16 14 12 10 7 5 7 11 15 19 20 19 20 24 26 22 26 30 31 34 44 55 41 34 34 45 43 40 38 37 34 34 33 34
27 24 22 25 28 27 26 26 25 24 24 20 18 14 11 6 5 9 12 14 17 22 20 23 27 26 28 30 34 34 44 39 40 46 47 45 46 38 39 38 36 33 32
27 27 28 29 29 31 31 33 37 36 35 34 31 29 24 18 11 6 2 10 11 14 15 18 21 27 29 32 33 30 33 39 40 42 45 52 44 37 36 39 37 36 33
26 27 30 32 33 35 38 38 40 42 43 43 40 39 37 32 27 20 14 11 10 9 8 9 11 21 27 29 33 35 39 39 44 41 42 42 40 40 43 42 40 37 33
28 29 28 29 31 34 36 38 40 43 44 44 45 44 43 44 34 32 27 25 18 16 15 12 6 2 6 19 27 29 38 43 40 35 36 38 35 37 40 42 41 38 33
26 27 29 31 33 34 35 35 36 38 39 42 43 44 43 40 37 37 39 37 35 31 27 23 21 16 14 12 7 5 9 29 30 36 32 25 28 29 30 34 37 35 34
25 26 27 28 30 31 33 35 37 38 39 40 41 39 39 38 34 35 35 37 38 37 36 32 28 25 21 18 16 16 16 13 12 10 3 6 4 13 15 25 21 26 30
24 26 26 26 28 29 32 33 34 34 36 37 37 38 38 38 36 32 30 32 33 34 33 32 30 29 24 21 19 19 19 20 17 11 11 5 6 12 9 6 9 13 14
23 24 24 25 25 28 28 30 31 32 34 34 34 36 36 36 35 33 31 32 30 30 29 30 30 26 24 23 22 23 23 22 16 12 10 8 5 4 6 8 7 4 3
17 20 22 24 26 27 27 28 29 30 30 32 34 34 35 34 34 35 34 33 31 29 29 28 25 22 21 21 22 22 22 16 18 17 14 14 13 11 9 7 6 7 4
14 17 20 23 24 25 27 28 29 29 31 33 32 33 34 34 33 32 31 31 29 28 28 25 23 21 19 18 20 18 17 16 17 16 15 16 17 18 17 15 13 10 8
12 17 19 21 22 25 28 30 31 32 34 33 34 33 33 32 32 30 28 27 27 27 25 22 20 19 19 20 21 18 17 19 19 18 19 19 18 16 13 12 13 13 11
12 14 17 19 21 24 27 28 29 31 31 31 30 32 31 32 33 32 30 28 26 24 21 21 21 21 22 21 20 21 21 21 21 20 19 18 16 16 18 17 15 13 10
10 14 16 18 19 20 22 25 27 27 25 26 26 26 29 31 28 27 29 29 27 26 23 22 24 25 25 25 24 23 22 20 20 20 19 19 19 18 18 18 18 17 15
10 12 14 15 17 18 19 20 22 22 22 21 21 23 23 22 23 28 30 28 27 25 24 28 28 29 29 29 28 28 27 25 24 21 18 18 19 19 19 19 18 17 18
10 12 13 14 16 17 18 20 22 21 22 23 23 21 21 21 24 29 29 27 27 26 30 32 31 31 30 28 28 28 28 27 24 21 20 20 18 17 17 18 19 19 19
9 11 13 13 12 14 15 17 18 20 22 23 22 22 21 22 25 26 27 25 30 32 33 32 32 31 30 30 29 28 26 25 24 23 20 19 18 18 18 18 18 20 20
7 9 11 11 12 13 14 15 16 17 19 20 20 20 20 21 21 23 25 27 28 29 29 30 30 29 29 28 28 28 27 26 25 23 21 19 18 19 18 18 18 17 17
5 6 9 12 13 14 15 15 16 17 18 19 20 21 21 21 22 24 24 22 22 24 24 25 27 27 27 28 29 29 28 28 27 26 24 21 18 17 18 18 18 20 20
7 9 10 12 14 15 15 17 17 18 19 19 18 19 20 21 22 22 22 21 19 20 21 23 24 24 25 27 28 28 28 28 28 27 25 21 19 18 16 16 17 18 19
8 10 11 12 14 15 16 17 17 18 18 17 17 18 19 19 19 19 19 19 19 20 21 22 20 19 21 23 25 27 29 30 30 28 26 23 20 18 18 17 17 17 18
8 10 12 13 15 15 16 17 17 17 16 17 18 19 19 20 20 20 20 20 20 21 21 20 17 16 16 17 21 23 25 26 27 28 28 27 23 20 19 19 19 19 18
10 11 13 14 16 17 18 18 18 17 18 19 19 18 20 21 22 22 22 23 22 21 20 19 16 17 18 16 15 17 21 22 23 26 27 27 24 22 20 19 18 17 16
11 13 14 15 17 17 17 17 18 19 19 20 20 21 21 22 24 25 24 24 23 22 20 19 19 19 18 19 18 16 17 19 20 23 26 24 23 21 20 20 16 14 13
12 14 15 16 16 16 16 17 18 19 20 21 22 22 23 24 25 26 26 26 26 25 23 22 21 21 22 23 21 18 14 16 18 22 25 24 21 19 20 18 15 13 13
Wind_Direction
2 5 16 18 2 2 0 357 356 348 337 324 311 326 292 279 271 265 260 258 253 248 245 250 251 254 258 246 239 222 221 237 247 256 272 258 259 261 254 255 248 244 244
14 16 30 35 22 36 40 44 42 38 31 24 14 4 334 290 283 279 274 264 252 246 247 245 246 250 248 240 242 234 223 236 260 268 268 264 263 261 252 251 246 245 242
27 29 37 48 43 48 56 58 59 59 54 52 50 43 34 14 330 301 287 265 248 241 237 232 233 240 244 247 243 243 240 236 253 258 263 269 269 258 251 249 240 240 240
38 40 43 52 55 58 62 66 66 65 65 61 61 63 63 62 69 74 208 242 223 214 216 215 216 222 227 229 230 240 242 233 240 234 247 260 262 260 248 238 234 237 241
41 41 48 55 58 63 63 64 67 68 66 65 64 64 66 65 68 75 80 104 132 144 175 209 233 245 247 243 239 233 233 239 234 241 235 247 248 247 241 238 235 237 241
47 46 47 51 56 58 62 63 62 61 62 65 65 62 61 65 72 75 80 84 94 96 95 95 102 82 265 259 248 239 239 240 233 234 236 234 234 234 242 230 230 233 234
52 52 51 52 55 58 60 60 59 61 64 62 60 60 60 61 64 66 72 73 77 78 80 82 83 78 80 86 109 185 218 229 230 228 225 216 224 220 213 222 231 230 229
52 54 54 55 55 57 59 60 60 60 60 61 61 60 60 57 56 60 62 65 68 68 67 66 69 70 75 78 84 92 87 85 55 60 99 178 266 227 211 210 214 216 224
54 52 52 53 55 55 56 57 59 60 61 60 60 59 58 55 54 52 56 58 59 61 61 56 56 52 55 66 72 72 73 77 75 58 56 62 340 324 308 227 264 240 229
54 54 54 57 57 58 58 58 59 59 58 57 58 58 56 53 53 54 51 53 55 54 52 49 48 41 41 47 51 52 57 60 64 67 55 53 57 7 329 327 298 314 278
57 59 58 58 60 61 61 61 61 60 60 57 55 55 53 53 48 46 48 49 48 49 48 46 45 37 35 34 42 48 48 46 51 45 45 40 40 46 42 37 351 348 357
53 56 58 57 57 59 60 59 57 57 56 56 53 52 51 47 46 47 46 44 40 42 44 42 40 37 37 42 45 45 40 39 41 39 35 32 27 27 22 16 17 3 351
53 52 50 49 50 52 52 50 49 48 47 46 45 44 43 44 44 45 45 43 40 38 38 38 37 36 36 36 37 32 30 33 33 31 31 29 27 20 17 21 17 9 357
56 53 51 50 44 43 44 44 48 46 41 41 39 39 38 37 35 33 32 33 34 34 35 36 36 36 36 35 31 30 31 28 24 25 24 18 11 10 11 10 5 360 357
55 54 51 49 47 45 43 40 41 49 45 37 38 41 32 36 35 36 30 26 24 21 19 20 22 24 26 28 29 27 24 19 18 18 12 7 5 6 8 4 2 358 355
57 55 49 42 41 43 44 44 49 51 50 55 46 38 42 40 35 33 30 27 28 24 19 25 25 23 21 18 15 14 13 12 13 10 6 3 3 2 0 1 1 358 353
54 52 46 43 42 42 40 39 39 37 40 43 45 43 41 36 32 28 29 27 26 21 29 29 27 24 22 18 13 8 6 6 2 360 359 357 356 355 356 356 356 356 354
48 52 47 41 37 35 34 29 25 22 23 25 27 28 30 25 24 25 24 17 23 25 29 28 25 22 20 17 14 9 4 0 359 356 352 351 351 353 352 353 357 355 352
42 36 35 31 26 19 16 14 13 13 13 11 11 14 15 12 10 17 18 21 23 24 24 23 22 20 18 15 12 10 5 0 359 356 353 347 345 344 346 349 347 346 344
21 17 9 5 5 5 4 1 3 4 1 0 359 1 357 355 358 3 5 7 11 12 13 15 14 13 13 12 10 7 3 358 355 353 350 346 342 339 337 339 339 338 339
358 353 354 353 353 356 350 350 350 348 349 348 350 347 344 344 347 350 356 358 354 353 354 356 357 357 1 4 5 5 4 359 355 352 349 343 341 338 333 331 331 332 330
342 346 346 347 347 344 342 342 339 339 341 340 338 335 332 332 335 338 341 342 340 334 332 332 336 342 345 350 354 357 356 354 352 351 348 344 335 331 332 334 328 325 330
336 339 341 338 341 338 335 334 332 335 335 332 329 327 327 328 327 327 328 327 326 324 324 323 315 313 323 335 342 346 347 348 348 349 347 343 340 332 326 327 330 332 329
327 329 332 333 334 333 333 330 328 329 330 330 330 329 327 324 324 325 324 322 321 317 311 312 306 294 300 305 320 332 334 338 341 344 344 342 340 335 334 324 322 322 327
317 321 325 331 332 331 329 327 326 328 330 331 329 328 328 325 322 326 327 326 324 320 314 307 296 294 289 287 294 311 323 325 332 338 342 339 337 335 331 330 322 319 321
313 317 324 329 327 326 326 325 324 326 328 329 328 328 327 327 326 328 327 325 324 323 320 317 309 299 290 283 281 286 297 312 322 332 338 337 336 333 335 331 324 323 324
Height
1434 1427 1419 1412 1406 1399 1393 1388 1383 1377 1373 1369 1368 1366 1366 1368 1370 1372 1374 1377 1380 1385 1389 1392 1396 1400 1404 1406 1411 1417 1424 1426 1426 1426 1428 1433 1432 1435 1438 1440 1443 1445 1449
1436 1429 1421 1414 1408 1400 1393 1387 1381 1376 1372 1368 1364 1362 1362 1364 1366 1367 1369 1371 1374 1377 1380 1385 1389 1393 1396 1400 1404 1405 1408 1412 1421 1419 1423 1423 1424 1426 1429 1431 1435 1437 1440
1439 1432 1424 1415 1409 1402 1395 1388 1383 1377 1373 1369 1365 1362 1360 1360 1361 1363 1364 1366 1367 1369 1374 1377 1380 1385 1389 1392 1395 1398 1400 1407 1410 1410 1414 1416 1416 1419 1422 1422 1425 1430 1432
1444 1437 1429 1420 1413 1406 1401 1395 1388 1384 1378 1374 1369 1365 1363 1362 1361 1361 1362 1362 1362 1364 1367 1370 1373 1377 1379 1384 1389 1394 1396 1397 1397 1402 1403 1407 1407 1409 1412 1415 1417 1421 1424
1448 1441 1434 1427 1421 1414 1407 1402 1396 1389 1385 1381 1376 1371 1367 1367 1363 1363 1365 1363 1362 1362 1365 1367 1368 1371 1373 1377 1383 1384 1386 1388 1390 1393 1393 1394 1394 1397 1401 1405 1408 1413 1416
1453 1447 1441 1435 1427 1421 1415 1410 1404 1398 1392 1386 1382 1381 1379 1376 1373 1372 1370 1366 1364 1363 1365 1367 1368 1370 1372 1373 1375 1374 1378 1381 1379 1382 1387 1387 1391 1391 1391 1394 1398 1401 1406
1458 1453 1447 1441 1435 1429 1424 1418 1412 1407 1403 1399 1397 1394 1391 1391 1390 1386 1379 1375 1370 1368 1369 1370 1371 1374 1375 1373 1371 1369 1371 1370 1374 1373 1371 1378 1381 1386 1382 1386 1389 1392 1396
1463 1458 1453 1448 1443 1437 1431 1426 1421 1418 1413 1410 1408 1405 1403 1402 1401 1395 1391 1385 1381 1378 1377 1378 1377 1377 1377 1373 1372 1369 1370 1369 1364 1372 1373 1372 1380 1378 1377 1377 1379 1382 1387
1468 1464 1459 1455 1449 1444 1438 1434 1431 1427 1422 1420 1418 1415 1412 1411 1408 1404 1400 1396 1392 1388 1387 1388 1383 1385 1385 1376 1374 1370 1370 1370 1373 1372 1365 1373 1373 1375 1377 1366 1373 1376 1377
1474 1470 1466 1462 1457 1451 1447 1443 1439 1435 1432 1429 1426 1423 1422 1418 1416 1412 1409 1404 1399 1396 1395 1392 1390 1392 1388 1384 1381 1378 1375 1372 1374 1373 1369 1373 1375 1374 1374 1368 1382 1374 1370
1479 1476 1473 1468 1464 1459 1455 1451 1447 1443 1440 1437 1434 1431 1428 1425 1423 1419 1415 1412 1410 1407 1403 1401 1400 1399 1393 1390 1386 1384 1385 1384 1377 1378 1379 1380 1378 1375 1371 1370 1372 1370 1370
1484 1481 1477 1473 1470 1466 1461 1457 1453 1449 1446 1443 1441 1439 1435 1433 1430 1426 1424 1420 1418 1414 1411 1410 1407 1404 1401 1397 1391 1390 1388 1386 1381 1381 1382 1382 1379 1373 1373 1373 1371 1372 1370
1487 1483 1480 1477 1474 1470 1465 1462 1458 1454 1450 1448 1445 1443 1441 1439 1436 1434 1431 1428 1424 1420 1418 1417 1413 1410 1406 1398 1393 1391 1390 1387 1387 1386 1385 1387 1383 1382 1381 1374 1373 1372 1372
1488 1487 1484 1480 1477 1473 1470 1467 1463 1460 1457 1454 1451 1448 1446 1442 1439 1437 1434 1431 1429 1427 1425 1420 1415 1411 1406 1403 1401 1399 1395 1394 1392 1391 1390 1387 1384 1380 1376 1373 1373 1373 1372
1490 1488 1485 1483 1481 1477 1474 1471 1468 1466 1465 1461 1459 1455 1451 1447 1446 1443 1439 1434 1431 1428 1425 1420 1416 1412 1409 1408 1407 1405 1403 1400 1397 1392 1388 1388 1385 1379 1378 1375 1373 1373 1372
1491 1489 1488 1485 1483 1481 1479 1477 1474 1471 1470 1468 1465 1460 1457 1455 1451 1446 1442 1439 1435 1431 1426 1421 1418 1415 1412 1410 1407 1405 1403 1401 1398 1396 1394 1390 1386 1382 1380 1378 1377 1376 1375
1492 1491 1489 1487 1485 1484 1481 1479 1476 1475 1472 1469 1466 1464 1460 1457 1453 1449 1445 1442 1438 1435 1429 1426 1424 1420 1417 1414 1410 1407 1404 1402 1400 1397 1393 1391 1388 1387 1383 1381 1378 1374 1371
1494 1492 1490 1490 1488 1485 1483 1480 1478 1476 1473 1470 1468 1465 1462 1459 1455 1452 1448 1445 1439 1433 1431 1429 1426 1423 1420 1417 1413 1410 1407 1404 1401 1398 1395 1392 1389 1386 1382 1380 1376 1374 1373
1495 1493 1492 1491 1489 1486 1485 1482 1480 1477 1475 1472 1470 1467 1463 1461 1457 1454 1450 1446 1442 1439 1436 1433 1430 1427 1424 1421 1418 1413 1409 1406 1403 1398 1394 1391 1388 1384 1382 1379 1376 1375 1373
1495 1494 1492 1491 1489 1486 1485 1483 1480 1477 1476 1473 1470 1466 1463 1461 1457 1454 1451 1447 1444 1442 1439 1435 1433 1430 1427 1421 1417 1412 1408 1405 1401 1397 1394 1391 1389 1386 1382 1379 1377 1375 1373
1495 1493 1491 1490 1489 1486 1485 1483 1480 1478 1475 1473 1471 1468 1465 1462 1458 1454 1451 1448 1444 1441 1439 1436 1433 1430 1426 1422 1418 1415 1412 1408 1404 1399 1395 1392 1389 1386 1384 1381 1378 1375 1372
1495 1493 1492 1489 1487 1485 1484 1482 1480 1477 1474 1472 1471 1468 1465 1462 1458 1455 1451 1448 1445 1442 1439 1436 1433 1430 1426 1423 1420 1415 1411 1407 1404 1400 1396 1392 1389 1386 1383 1380 1376 1374 1372
1494 1493 1491 1489 1486 1484 1482 1481 1479 1476 1473 1470 1468 1465 1462 1459 1456 1452 1449 1446 1443 1440 1437 1434 1431 1429 1426 1424 1420 1417 1414 1410 1406 1402 1397 1393 1388 1384 1381 1377 1374 1372 1370
1493 1492 1489 1487 1485 1483 1481 1479 1477 1474 1471 1468 1465 1462 1459 1456 1452 1449 1446 1442 1439 1437 1434 1431 1428 1425 1423 1421 1419 1417 1414 1410 1406 1401 1397 1392 1387 1383 1379 1376 1374 1372 1370
1492 1490 1487 1484 1483 1481 1479 1477 1475 1472 1468 1465 1462 1459 1456 1453 1448 1445 1441 1438 1435 1432 1429 1426 1424 1421 1419 1417 1415 1413 1411 1408 1404 1400 1396 1391 1386 1382 1379 1376 1373 1371 1369
1489 1487 1484 1482 1480 1479 1477 1475 1472 1468 1465 1462 1459 1455 1452 1449 1444 1440 1436 1433 1429 1426 1423 1420 1417 1414 1412 1410 1409 1408 1406 1405 1402 1398 1394 1389 1385 1381 1378 1375 1372 1369 1368